www.pogodaiklimat.ru

Погода и климат >> Архив погоды >> Россия >> Якутия >> Столб Остров


ПОГОДА на Столб Острове

  • Прогноз погоды на Столб Острове
  • Монитор погоды на Столб Острове

АРХИВ ПОГОДЫ на Столб Острове

Время (UTC), дата Ветер
(напр.,м/с)
 
Видим.   Явления Облачность Т
(С)
Тd
(С)
f
(%)
Тe
(С)
Тes
(С)
Комфортность P
(гПа)
Po
(гПа)
Тmin
(С)
Tmax
(С)
R
(мм)
R24
(мм)
S
(см)
03 15.03 штиль 0 50 км ясно -28.1 -31.9 70 -28 -26 1016.9 1014.1
06 15.03 штиль 0 50 км ясно -26.5 -30.4 70 -27 -25 1016.8 1014.0
09 15.03 ЮВ 3 50 км ясно -25.8 -29.7 70 -35 -35 опасность
обморожения
1016.7 1014.0
12 15.03 В 3 50 км ясно -28.4 -32.2 70 -38 -38 опасность
обморожения
1016.7 1013.9 -25.6
15 15.03 В 1 50 км ясно -30.8 -34.6 69 -35 -35 опасность
обморожения
1016.4 1013.6
18 15.03 ЮВ 4 50 км ясно -27.4 -31.2 70 -38 -38 опасность
обморожения
1016.1 1013.3
21 15.03 ЮВ 1 50 км ясно -27.2 -31.1 69 -31 -31 опасность
обморожения
1016.4 1013.6
00 16.03 В 4 50 км ясно -27.2 -30.3 75 -38 -37 опасность
обморожения
1016.5 1013.7 -30.8 12
03 16.03 С 1 50 км ясно -27.6 -31.4 70 -31 -29 опасность
обморожения
1016.6 1013.8
06 16.03 В 5 50 км ясно -24.7 -28.6 70 -36 -35 опасность
обморожения
1016.6 1013.9
09 16.03 В 7 50 км ясно -22.9 -26.9 70 -35 -35 опасность
обморожения
1017.4 1014.7
12 16.03 ЮВ 4 50 км ясно -26.0 -29.1 75 -36 -36 опасность
обморожения
1018.7 1016.0 -22.9
15 16.03 Ю 1 50 км ясно -29.6 -32.6 75 -34 -34 опасность
обморожения
1019.2 1016.4
18 16.03 ЮВ 5 50 км ясно -29.0 -32.8 70 -41 -41 опасность
обморожения
1019.9 1017.1
21 16.03 В 5 50 км 3/0
[Ci fib]
-26.1 -29.3 74 -38 -38 опасность
обморожения
1020.3 1017.5
00 17.03 штиль 0 50 км ясно -30.0 -33.0 75 -30 -29 1021.4 1018.6 -30.2 12
03 17.03 С 1 50 км ясно -29.6 -32.6 75 -34 -31 опасность
обморожения
1021.8 1019.0
06 17.03 С 3 50 км ясно -29.2 -33.0 70 -39 -38 опасность
обморожения
1022.0 1019.2
09 17.03 штиль 0 50 км ясно -30.0 -33.0 75 -30 -30 1023.0 1020.2
12 17.03 штиль 0 50 км ясно -32.0 -35.4 72 -32 -32 опасность
обморожения
1023.8 1021.0 -29.0
15 17.03 штиль 0 50 км ясно -33.8 -37.5 69 -34 -34 опасность
обморожения
1024.5 1021.6
18 17.03 штиль 0 50 км ясно -34.6 -38.1 70 -35 -35 опасность
обморожения
1023.6 1020.7
21 17.03 штиль 0 50 км ясно -34.8 -38.4 70 -35 -35 опасность
обморожения
1023.7 1020.8
00 18.03 штиль 0 50 км ясно -33.5 -37.2 69 -34 -33 опасность
обморожения
1023.6 1020.7 -34.9 12
03 18.03 штиль 0 50 км ясно -29.6 -33.3 70 -30 -27 1023.5 1020.7
06 18.03 штиль 0 50 км ясно -28.9 -32.8 69 -29 -27 1023.2 1020.4
09 18.03 штиль 0 50 км ясно -30.8 -34.6 69 -31 -31 опасность
обморожения
1023.7 1020.9
12 18.03 штиль 0 50 км ясно -31.9 -35.7 69 -32 -32 опасность
обморожения
1024.1 1021.3 -28.9
15 18.03 штиль 0 50 км ясно -33.8 -37.5 69 -34 -34 опасность
обморожения
1023.8 1020.9
18 18.03 штиль 0 50 км ясно -33.6 -37.2 70 -34 -34 опасность
обморожения
1023.0 1020.1
21 18.03 штиль 0 50 км ясно -34.0 -37.5 70 -34 -34 опасность
обморожения
1023.0 1020.1
00 19.03 штиль 0 50 км ясно -31.5 -35.2 70 -32 -31 опасность
обморожения
1022.8 1020.0 -34.4 12
03 19.03 штиль 0 50 км ясно -29.0 -32.8 70 -29 -26 1022.2 1019.4
06 19.03 штиль 0 50 км ясно -28.2 -32.1 69 -28 -26 1021.9 1019.1
09 19.03 штиль 0 50 км ясно -29.5 -33.3 69 -30 -29 1021.2 1018.4
12 19.03 Ю 4 50 км ясно -25.6 -20.6 100 -36 -36 опасность
обморожения
1017.8 -25.6
15 19.03 Ю 12-13
{14}
50 км позёмок ясно -26.3 -30.1 70 -43 -43 опасность
обморожения
1019.6 1016.8
18 19.03 Ю 11-12
{14}
50 км позёмок ясно -28.2 -32.1 69 -45 -45 опасность
обморожения
1018.9 1016.1
21 19.03 Ю 11-12
{13}
50 км позёмок ясно -29.0 -32.8 70 -46 -46 опасность
обморожения
1018.8 1016.0
00 20.03 Ю 11 50 км позёмок ясно -26.9 -30.0 75 -43 -43 опасность
обморожения
1018.1 1015.3 -29.0 12
03 20.03 Ю 10-12
{14}
50 км позёмок ясно -23.8 -27.0 75 -39 -39 опасность
обморожения
1017.4 1014.7
06 20.03 Ю 12-13
{14}
50 км позёмок ясно -21.5 -24.8 75 -37 -37 опасность
обморожения
1016.1 1013.4
09 20.03 Ю 11-12
{14}
50 км позёмок ясно -21.7 -24.9 75 -36 -36 опасность
обморожения
1016.5 1013.8
12 20.03 Ю 11-12
{14}
50 км позёмок 10/0
[Ac As]
-21.6 -24.8 75 -36 -36 опасность
обморожения
1017.1 1014.4 -21.2
15 20.03 Ю 9-10
{14}
10 км слаб. снег {метель} 10/0
[Ac As]
-20.1 -23.4 75 -33 -33 опасность
обморожения
1016.9 1014.2
18 20.03 Ю 8
{12}
20 км позёмок {снег} 10/0
[Ac lent Ci fib]
-18.8 -22.1 75 -31 -31 опасность
обморожения
1016.3 1013.6
21 20.03 Ю 9-10
{12}
50 км позёмок 6/0
[Ci fib]
-19.0 -22.3 75 -32 -32 опасность
обморожения
1015.7 1013.0
00 21.03 Ю 10-11
{13}
20 км позёмок 10/0
[Ac trans Ci fib]
-17.8 -21.2 75 -31 -31 опасность
обморожения
1014.6 1012.0 -21.6 0.0 12
03 21.03 Ю 11-12
{14}
20 км позёмок 10/0
[Ci fib]
-16.5 -19.9 75 -29 -29 1013.7 1011.1
06 21.03 Ю 9-10
{13}
20 км позёмок 10/0
[Ac lent Ci fib]
-16.8 -20.2 75 -29 -29 1012.8 1010.2
09 21.03 Ю 9-11
{13}
20 км позёмок 10/0
[Ac trans Cs]
-15.2 -18.6 75 -27 -27 1012.6 1010.0
12 21.03 Ю 12
{17}
20 км сильный позёмок 10/0
[Ac trans]
-16.5 -19.9 75 -30 -30 1011.5 1008.9 -15.0
15 21.03 Ю 11-14
{17}
20 км сильный позёмок 10/0
[Ac und]
-15.2 -18.6 75 -28 -28 1010.5 1007.9
18 21.03 Ю 14-16
{18}
20 км сильный позёмок 10/0
[Ac und]
-16.7 -20.1 75 -31 -31 опасность
обморожения
1008.3 1005.7
21 21.03 Ю 15-17
{18}
20 км сильный позёмок 10/0
[Ac und]
-17.6 -20.2 80 -33 -33 опасность
обморожения
1006.1 1003.5
00 22.03 Ю 15-17
{19}
20 км сильный позёмок 10/0
[Ac und]
-16.0 -18.7 80 -30 -30 1002.7 1000.1 -17.8 14

 

Местоположение метеостанции Столб Остров (Якутия, Россия): широта 72.40 долгота 126.30 высота над уровнем моря 20 м.

В архиве по умолчанию представлена погода на Столб Острове за последнюю неделю. Архивные данные за месяц целиком и за предыдущие месяцы, начиная с января 2011 года, Вы можете получить, выбрав интересующий диапазон дат из раскрывающегося списка и нажав кнопку "Ввод!".


*Определитесь, кто Вы:
робот инопланетянин человек

Внимание! Время в таблицах - всемирное. Для получения местного времени необходимо прибавить поправку, которая равна 9 ч.

Смотрите также архив погоды в соседних городах и на ближайших метеорологических станциях:

Погода на Мысе Быков (Якутия, Россия) (105 км)
Погода в Тюмяти (Якутия, Россия) (109 км)
Погода в Тикси (Якутия, Россия) (128 км)
Погода в Кюсюре (Якутия, Россия) (195 км)
Погода на Усть-Оленеке (Якутия, Россия) (225 км)
Погода в Юбилейной (Якутия, Россия) (392 км)
Погода в Джарджане (Якутия, Россия) (417 км)
Погода в Саскылахе (Якутия, Россия) (421 км)
Погода в Усть-Куйге (Якутия, Россия) (426 км)
Погода в Анабаре (Якутия, Россия) (430 км)

Пояснения к столбцам:

Ветер - указаны скорость ветра в м/с - средняя за 10 мин, порывы в срок и между сроками (в фигурных скобках) и направление, откуда дует ветер: С - северный, СВ - северо-восточный, В - восточный, ЮВ - юго-восточный, Ю - южный, ЮЗ - юго-западный, З - западный, СЗ - северо-западный.
Видимость - горизонтальная дальность видимости в метрах или километрах. При видимости от 1 до 10 км при отсутствии осадков обычно наблюдается дымка, при ухудшении видимости до 1 км и менее - туман. В сухую погоду видимость может ухудшаться дымом, пылью или мглою.
Явления - указаны атмосферные явления, наблюдавшиеся в срок или в последний час перед сроком; фигурными скобками обозначены явления, наблюдавшиеся между сроками (за 1-3 часа до срока); квадратными скобками обозначены град или гололедные отложения с указанием их диаметра в мм.
Облачность - указаны через наклонную черту общая и нижняя облачность в баллах и высота нижней границы облаков в метрах; квадратными скобками обозначены формы облаков: Ci - перистые, Cs - перисто-слоистые, Cc - перисто-кучевые, Ac - высококучевые, As - высокослоистые, Sc - слоисто-кучевые, Ns - слоисто-дождевые, Cu - кучевые, Cb - кучево-дождевые. Подробнее классификацию облаков см. в Атласе облаков (PDF).
T - Температура воздуха - температура, измеренная на высоте 2 м над землей.
Td - Температура точки росы - температура, при понижении до которой содержащийся в воздухе водяной пар достигнет насыщения.
f - Относительная влажность воздуха - влажноcть воздуха, измеренная на высоте 2 м над землей.
Te - Эффективная температура - температура, которую ощущает одетый по сезону человек в тени. Характеристика душности погоды. При расчете учитывается влияние влажности воздуха и скорости ветра на теплоощущения человека.
Tes - Эффективная температура на солнце - температура, которую ощущает человек, с поправкой на солнечный нагрев. Характеристика знойности погоды. Зависит от высоты солнца над горизонтом, облачности и скорости ветра. Ночью, в пасмурную погоду, а также при ветре 12 м/с и более поправка равна нулю.
P - Атмосферное давление - приведенное к уровню моря атмосферное давление.
Po - Атмосферное давление - измеренное на уровне метеостанции атмосферное давление.
Tmin - Минимальная температура - минимум температуры воздуха на высоте 2 м над землей.
Tmax - Максимальная температура - максимум температуры воздуха на высоте 2 м над землей.
R - Количество осадков - Количество выпавших осадков за период времени, мм. При наведении курсора мыши на число - период времени, за который выпало указанное количество осадков.
R24 - Количество осадков - Количество выпавших осадков за 24 часа, мм.
S - Снежный покров - Высота снежного покрова, см. При наведении курсора мыши на число - состояние снежного покрова и степень покрытия местности в баллах.